When you browse on this site, cookies collect data to enhance your experience and personalize the content and advertising you see.
Visit our Privacy Policy to learn more. By continuing to use the site, you agree to this use of cookies and data.
  • In Romania
  • List of Countries
  • For 7 days
  • Water Temperature
  • Weather Map
  • Weather Widgets
  • user-avatar
    Login

    Hourly Weather Durham

    Today, 2 June, Tuesday

    Time Temperature Precipitation Wind Pressure Humidity
    00:00 +11°C° 0 mm 1 mps 763 mmHg 78%
    01:00 +11°C° 0 mm 1 mps 762 mmHg 77%
    02:00 +11°C° 0 mm 1 mps 762 mmHg 75%
    03:00 +10°C° 0 mm 1 mps 762 mmHg 73%
    04:00 +11°C° 0 mm 1 mps 761 mmHg 70%
    05:00 +12°C° 0 mm 0 mps 761 mmHg 67%
    06:00 +13°C° 0 mm 0 mps 761 mmHg 63%
    07:00 +14°C° 0 mm 0 mps 761 mmHg 60%
    08:00 +16°C° 0 mm 0 mps 760 mmHg 56%
    09:00 +19°C° 0 mm 1 mps 760 mmHg 53%
    10:00 +20°C° 0 mm 1 mps 760 mmHg 51%
    11:00 +21°C° 0 mm 1 mps 759 mmHg 49%
    12:00 +22°C° 0 mm 1 mps 759 mmHg 48%
    13:00 +21°C° 0.2 mm 2 mps 758 mmHg 51%
    14:00 +21°C° 0.2 mm 2 mps 758 mmHg 54%
    15:00 +21°C° 0.2 mm 2 mps 757 mmHg 58%
    16:00 +20°C° 0.3 mm 2 mps 757 mmHg 65%
    17:00 +19°C° 0.3 mm 2 mps 756 mmHg 71%
    18:00 +17°C° 0.3 mm 2 mps 756 mmHg 78%
    19:00 +16°C° 0.1 mm 1 mps 756 mmHg 79%
    20:00 +16°C° 0.1 mm 1 mps 755 mmHg 79%
    21:00 +15°C° 0.1 mm 1 mps 755 mmHg 80%
    22:00 +14°C° 0.2 mm 1 mps 755 mmHg 83%
    23:00 +14°C° 0.2 mm 2 mps 755 mmHg 86%

    Tomorrow, 3 June, Wednesday

    Time Temperature Precipitation Wind Pressure Humidity
    00:00 +13°C° 0.2 mm 2 mps 754 mmHg 89%
    01:00 +12°C° 1.2 mm 3 mps 754 mmHg 91%
    02:00 +12°C° 1.2 mm 4 mps 754 mmHg 93%
    03:00 +10°C° 1.2 mm 5 mps 753 mmHg 95%
    04:00 +10°C° 1.3 mm 6 mps 753 mmHg 95%
    05:00 +10°C° 1.3 mm 7 mps 753 mmHg 94%
    06:00 +9°C° 1.3 mm 7 mps 753 mmHg 94%
    07:00 +9°C° 0.4 mm 8 mps 753 mmHg 91%
    08:00 +9°C° 0.4 mm 8 mps 753 mmHg 89%
    09:00 +10°C° 0.4 mm 8 mps 753 mmHg 86%
    10:00 +10°C° 0 mm 8 mps 753 mmHg 83%
    11:00 +11°C° 0 mm 8 mps 753 mmHg 80%
    12:00 +11°C° 0 mm 8 mps 753 mmHg 77%
    13:00 +11°C° 0.1 mm 7 mps 753 mmHg 79%
    14:00 +11°C° 0.1 mm 7 mps 753 mmHg 81%
    15:00 +11°C° 0.1 mm 7 mps 753 mmHg 83%
    16:00 +11°C° 0.3 mm 7 mps 752 mmHg 86%
    17:00 +10°C° 0.3 mm 7 mps 752 mmHg 88%
    18:00 +10°C° 0.3 mm 7 mps 752 mmHg 91%
    19:00 +10°C° 0.5 mm 7 mps 752 mmHg 91%
    20:00 +9°C° 0.5 mm 7 mps 752 mmHg 91%
    21:00 +9°C° 0.5 mm 7 mps 752 mmHg 91%
    22:00 +8°C° 0.1 mm 6 mps 752 mmHg 91%
    23:00 +8°C° 0.1 mm 6 mps 752 mmHg 90%

    Day after tomorrow, 4 June, Thursday

    Time Temperature Precipitation Wind Pressure Humidity
    00:00 +7°C° 0.1 mm 5 mps 752 mmHg 89%
    01:00 +6°C° 0 mm 5 mps 751 mmHg 89%
    02:00 +6°C° 0 mm 5 mps 751 mmHg 89%
    03:00 +5°C° 0 mm 4 mps 750 mmHg 89%
    04:00 +5°C° 0 mm 4 mps 750 mmHg 86%
    05:00 +6°C° 0 mm 4 mps 750 mmHg 84%
    06:00 +7°C° 0 mm 4 mps 749 mmHg 82%
    07:00 +7°C° 0 mm 4 mps 749 mmHg 77%
    08:00 +8°C° 0 mm 4 mps 749 mmHg 72%
    09:00 +10°C° 0 mm 4 mps 748 mmHg 67%
    10:00 +11°C° 0.1 mm 4 mps 748 mmHg 67%
    11:00 +11°C° 0.1 mm 4 mps 748 mmHg 67%
    12:00 +11°C° 0.1 mm 4 mps 747 mmHg 68%
    13:00 +11°C° 0.2 mm 4 mps 747 mmHg 69%
    14:00 +12°C° 0.2 mm 3 mps 746 mmHg 70%
    15:00 +12°C° 0.2 mm 3 mps 746 mmHg 71%
    16:00 +11°C° 0.2 mm 3 mps 746 mmHg 72%
    17:00 +12°C° 0.2 mm 2 mps 745 mmHg 73%
    18:00 +12°C° 0.2 mm 2 mps 745 mmHg 74%
    19:00 +10°C° 0 mm 2 mps 745 mmHg 76%
    20:00 +10°C° 0 mm 1 mps 745 mmHg 78%
    21:00 +9°C° 0 mm 1 mps 745 mmHg 80%
    22:00 +8°C° 0.1 mm 2 mps 745 mmHg 81%
    23:00 +8°C° 0.1 mm 2 mps 744 mmHg 82%

    5 June, Friday

    Time Temperature Precipitation Wind Pressure Humidity
    00:00 +8°C° 0.1 mm 3 mps 744 mmHg 83%
    01:00 +7°C° 0.1 mm 3 mps 744 mmHg 83%
    02:00 +7°C° 0.1 mm 3 mps 743 mmHg 83%
    03:00 +5°C° 0.1 mm 4 mps 743 mmHg 83%
    04:00 +6°C° 0 mm 4 mps 743 mmHg 81%
    05:00 +6°C° 0 mm 4 mps 743 mmHg 79%
    06:00 +6°C° 0 mm 4 mps 742 mmHg 77%
    07:00 +7°C° 0 mm 4 mps 742 mmHg 72%
    08:00 +9°C° 0 mm 5 mps 742 mmHg 66%
    09:00 +10°C° 0 mm 5 mps 742 mmHg 60%
    10:00 +10°C° 0.1 mm 5 mps 742 mmHg 58%
    11:00 +12°C° 0.1 mm 5 mps 741 mmHg 57%
    12:00 +13°C° 0.1 mm 5 mps 741 mmHg 56%
    13:00 +13°C° 0.5 mm 5 mps 741 mmHg 60%
    14:00 +12°C° 0.5 mm 5 mps 740 mmHg 65%
    15:00 +12°C° 0.5 mm 5 mps 740 mmHg 70%
    16:00 +12°C° 0.6 mm 5 mps 740 mmHg 71%
    17:00 +11°C° 0.6 mm 4 mps 740 mmHg 73%
    18:00 +11°C° 0.6 mm 4 mps 740 mmHg 75%
    19:00 +10°C° 0.2 mm 4 mps 740 mmHg 77%
    20:00 +8°C° 0.2 mm 4 mps 740 mmHg 79%
    21:00 +6°C° 0.2 mm 5 mps 740 mmHg 81%
    22:00 +6°C° 0 mm 5 mps 740 mmHg 82%
    23:00 +4°C° 0 mm 6 mps 740 mmHg 83%

    6 June, Saturday

    Time Temperature Precipitation Wind Pressure Humidity
    00:00 +3°C° 0 mm 7 mps 740 mmHg 83%
    01:00 +2°C° 0 mm 8 mps 740 mmHg 83%
    02:00 +2°C° 0 mm 8 mps 739 mmHg 82%
    03:00 +2°C° 0 mm 9 mps 739 mmHg 81%
    04:00 +2°C° 0.1 mm 9 mps 739 mmHg 81%
    05:00 +3°C° 0.1 mm 10 mps 739 mmHg 81%
    06:00 +3°C° 0.1 mm 10 mps 739 mmHg 81%
    07:00 +5°C° 0.1 mm 10 mps 739 mmHg 79%
    08:00 +6°C° 0.1 mm 10 mps 739 mmHg 76%
    09:00 +7°C° 0.1 mm 10 mps 739 mmHg 74%
    10:00 +7°C° 0.1 mm 10 mps 739 mmHg 75%
    11:00 +7°C° 0.1 mm 10 mps 739 mmHg 77%
    12:00 +7°C° 0.1 mm 10 mps 739 mmHg 78%
    13:00 +7°C° 0.1 mm 10 mps 739 mmHg 79%
    14:00 +7°C° 0.1 mm 10 mps 739 mmHg 80%
    15:00 +7°C° 0.1 mm 10 mps 739 mmHg 81%
    16:00 +7°C° 0.2 mm 10 mps 739 mmHg 82%
    17:00 +7°C° 0.2 mm 10 mps 738 mmHg 84%
    18:00 +7°C° 0.2 mm 10 mps 738 mmHg 86%
    19:00 +7°C° 0.4 mm 10 mps 738 mmHg 87%
    20:00 +7°C° 0.4 mm 10 mps 738 mmHg 88%
    21:00 +7°C° 0.4 mm 9 mps 738 mmHg 89%
    22:00 +7°C° 0.2 mm 9 mps 738 mmHg 89%
    23:00 +7°C° 0.2 mm 8 mps 737 mmHg 89%

    7 June, Sunday

    Time Temperature Precipitation Wind Pressure Humidity
    00:00 +7°C° 0.2 mm 8 mps 737 mmHg 90%
    01:00 +8°C° 0.1 mm 7 mps 737 mmHg 90%
    02:00 +8°C° 0.1 mm 6 mps 737 mmHg 91%
    03:00 +8°C° 0.1 mm 5 mps 737 mmHg 91%
    04:00 +8°C° 0.1 mm 5 mps 737 mmHg 91%
    05:00 +8°C° 0.1 mm 4 mps 737 mmHg 91%
    06:00 +10°C° 0.1 mm 4 mps 737 mmHg 91%
    07:00 +10°C° 0.2 mm 4 mps 738 mmHg 88%
    08:00 +11°C° 0.2 mm 3 mps 738 mmHg 86%
    09:00 +12°C° 0.2 mm 3 mps 739 mmHg 84%
    10:00 +12°C° 0.4 mm 3 mps 739 mmHg 83%
    11:00 +13°C° 0.4 mm 3 mps 740 mmHg 82%
    12:00 +13°C° 0.4 mm 3 mps 740 mmHg 80%
    13:00 +13°C° 0.8 mm 4 mps 740 mmHg 81%
    14:00 +13°C° 0.8 mm 4 mps 741 mmHg 82%
    15:00 +13°C° 0.8 mm 5 mps 741 mmHg 82%
    16:00 +13°C° 0.3 mm 5 mps 741 mmHg 83%
    17:00 +13°C° 0.3 mm 5 mps 742 mmHg 83%
    18:00 +12°C° 0.3 mm 5 mps 742 mmHg 83%
    19:00 +11°C° 0 mm 4 mps 743 mmHg 86%
    20:00 +10°C° 0 mm 4 mps 743 mmHg 89%
    21:00 +8°C° 0 mm 4 mps 744 mmHg 92%
    22:00 +8°C° 0.2 mm 4 mps 744 mmHg 93%
    23:00 +9°C° 0.2 mm 5 mps 744 mmHg 93%
    Show more